VCV3726 SVMI-MMSM

Flight info

Callsign VCV3726
Flight time N/A
Altitude 38000
Route MARES1 MARES A315 ATONO UW1 CRO UM787 REBIM DCT EDMOL UM409 KINOP DCT ADSOV DCT GADIM UL349 VSA UJ5 MTT UJ64 MEBAS DCT OTIGA OTIGA1R
Aircraft A346/H-SDE2E3FGHIJ3J4J5M1RWXY/LB1D1

Departure

Time 2026-05-01 12:13
Airport Maiquetía Simón Bolívar International Airport (SVMI)

Arrival

Time N/A
Airport Felipe Ángeles International Airport (MMSM)
Time Latitude Longitude Altitude Speed Heading
2026-05-01 11:58 10.59846 -67.00458 240 ft 0 kts 178°
2026-05-01 11:59 10.59857 -67.00459 239 ft 0 kts 178°
2026-05-01 11:59 10.59883 -67.00460 240 ft 0 kts 178°
2026-05-01 12:00 10.59901 -67.00460 236 ft 0 kts 178°
2026-05-01 12:00 10.59900 -67.00460 236 ft 0 kts 178°
2026-05-01 12:01 10.59908 -67.00461 236 ft 0 kts 178°
2026-05-01 12:02 10.59933 -67.00462 236 ft 0 kts 178°
2026-05-01 12:02 10.59960 -67.00462 237 ft 0 kts 181°
2026-05-01 12:02 10.59963 -67.00462 236 ft 0 kts 187°
2026-05-01 12:07 10.59962 -67.00462 236 ft 0 kts 185°
2026-05-01 12:07 10.59959 -67.00462 241 ft 2 kts 175°
2026-05-01 12:07 10.59936 -67.00442 236 ft 7 kts 119°
2026-05-01 12:07 10.59924 -67.00379 235 ft 11 kts 90°
2026-05-01 12:08 10.59940 -67.00296 233 ft 13 kts 43°
2026-05-01 12:08 10.60031 -67.00294 233 ft 14 kts 357°
2026-05-01 12:08 10.60113 -67.00259 232 ft 15 kts 72°
2026-05-01 12:08 10.60117 -67.00142 230 ft 18 kts 89°
2026-05-01 12:09 10.60121 -67.00000 228 ft 22 kts 88°
2026-05-01 12:09 10.60133 -66.99880 230 ft 17 kts 83°
2026-05-01 12:09 10.60139 -66.99745 219 ft 16 kts 88°
2026-05-01 12:09 10.60109 -66.99671 224 ft 11 kts 151°
2026-05-01 12:10 10.60046 -66.99664 224 ft 7 kts 177°
2026-05-01 12:10 10.59972 -66.99661 228 ft 5 kts 180°
2026-05-01 12:10 10.59937 -66.99659 228 ft 6 kts 161°
2026-05-01 12:11 10.59919 -66.99575 222 ft 0 kts 76°
2026-05-01 12:12 10.59924 -66.99552 220 ft 23 kts 76°
2026-05-01 12:12 10.60044 -66.99062 197 ft 116 kts 76°
2026-05-01 12:12 10.60304 -66.98013 212 ft 182 kts 76°
2026-05-01 12:13 10.60653 -66.96711 898 ft 192 kts 68°
2026-05-01 12:13 10.61395 -66.95620 1976 ft 187 kts 40°
2026-05-01 12:13 10.62490 -66.95050 2921 ft 170 kts 10°
2026-05-01 12:13 10.63612 -66.95115 3673 ft 159 kts 340°
2026-05-01 12:14 10.64498 -66.95726 4235 ft 157 kts 309°
2026-05-01 12:14 10.65127 -66.96682 4584 ft 169 kts 301°
2026-05-01 12:14 10.65729 -66.97770 4884 ft 184 kts 300°
2026-05-01 12:14 10.66372 -66.98957 5217 ft 199 kts 300°
2026-05-01 12:15 10.67078 -67.00244 5546 ft 217 kts 300°
2026-05-01 12:15 10.67855 -67.01641 5893 ft 236 kts 300°
2026-05-01 12:15 10.68698 -67.03146 6279 ft 253 kts 300°
2026-05-01 12:15 10.69597 -67.04743 6724 ft 267 kts 300°
2026-05-01 12:16 10.70553 -67.06438 7132 ft 284 kts 300°
2026-05-01 12:16 10.71556 -67.08216 7657 ft 294 kts 300°
2026-05-01 12:16 10.72587 -67.10042 8379 ft 296 kts 300°
2026-05-01 12:16 10.73616 -67.11866 9087 ft 298 kts 300°
2026-05-01 12:17 10.74655 -67.13707 9754 ft 302 kts 300°
2026-05-01 12:17 10.75707 -67.15572 10386 ft 306 kts 300°
2026-05-01 12:17 10.76788 -67.17490 10752 ft 320 kts 300°
2026-05-01 12:17 10.77928 -67.19510 11045 ft 336 kts 300°
2026-05-01 12:18 10.79189 -67.21581 11325 ft 352 kts 304°
2026-05-01 12:18 10.80646 -67.23651 11606 ft 367 kts 307°
2026-05-01 12:18 10.82218 -67.25772 11880 ft 382 kts 307°
2026-05-01 12:18 10.83858 -67.27968 12197 ft 395 kts 307°
2026-05-01 12:19 10.85536 -67.30218 12742 ft 400 kts 307°
2026-05-01 12:19 10.87227 -67.32487 13422 ft 403 kts 307°
2026-05-01 12:19 10.88923 -67.34766 14061 ft 405 kts 307°
2026-05-01 12:19 10.90630 -67.37064 14670 ft 409 kts 307°
2026-05-01 12:20 10.92352 -67.39383 15263 ft 412 kts 307°
2026-05-01 12:20 10.94088 -67.41720 15845 ft 415 kts 307°
2026-05-01 12:20 10.95833 -67.44072 16407 ft 418 kts 307°
2026-05-01 12:20 10.97529 -67.46489 16933 ft 421 kts 301°
2026-05-01 12:21 10.98870 -67.49150 17478 ft 423 kts 292°
2026-05-01 12:21 10.99774 -67.51965 17996 ft 425 kts 283°
2026-05-01 12:21 11.00403 -67.54914 18536 ft 427 kts 281°
2026-05-01 12:21 11.00987 -67.57898 19018 ft 431 kts 281°
2026-05-01 12:22 11.01573 -67.60907 19483 ft 434 kts 281°
2026-05-01 12:22 11.02173 -67.63934 19942 ft 437 kts 281°
2026-05-01 12:22 11.02784 -67.66978 20397 ft 440 kts 281°
2026-05-01 12:22 11.03404 -67.70044 20836 ft 443 kts 281°
2026-05-01 12:23 11.04027 -67.73137 21263 ft 446 kts 281°
2026-05-01 12:23 11.04652 -67.76247 21681 ft 449 kts 281°
2026-05-01 12:23 11.05280 -67.79375 22087 ft 452 kts 281°
2026-05-01 12:23 11.05913 -67.82525 22480 ft 455 kts 281°
2026-05-01 12:24 11.06550 -67.85695 22861 ft 458 kts 281°
2026-05-01 12:24 11.07192 -67.88885 23221 ft 460 kts 281°
2026-05-01 12:24 11.07838 -67.92094 23585 ft 463 kts 281°
2026-05-01 12:24 11.08487 -67.95323 23942 ft 466 kts 281°
2026-05-01 12:25 11.09135 -67.98567 24281 ft 468 kts 281°
2026-05-01 12:25 11.10306 -68.05128 24999 ft 472 kts 279°
2026-05-01 12:25 11.10869 -68.08386 25371 ft 474 kts 279°
2026-05-01 12:26 11.11445 -68.11696 25742 ft 475 kts 279°
2026-05-01 12:26 11.12613 -68.18357 26436 ft 478 kts 279°
2026-05-01 12:26 11.13202 -68.21703 26788 ft 480 kts 279°
2026-05-01 12:27 11.13792 -68.25054 27140 ft 481 kts 279°
2026-05-01 12:27 11.14980 -68.31792 27792 ft 484 kts 279°
2026-05-01 12:28 11.16174 -68.38577 28453 ft 487 kts 279°
2026-05-01 12:28 11.16769 -68.41967 28908 ft 485 kts 279°
2026-05-01 12:28 11.18041 -68.48684 29920 ft 479 kts 280°
2026-05-01 12:29 11.18686 -68.52007 30384 ft 477 kts 280°
2026-05-01 12:29 11.19328 -68.55319 30843 ft 475 kts 280°
2026-05-01 12:29 11.20600 -68.61898 31808 ft 469 kts 280°
2026-05-01 12:30 11.21844 -68.68355 32711 ft 465 kts 280°
2026-05-01 12:30 11.22466 -68.71587 33194 ft 462 kts 280°
2026-05-01 12:30 11.23082 -68.74791 33640 ft 460 kts 280°
2026-05-01 12:31 11.23695 -68.77983 34078 ft 457 kts 280°
2026-05-01 12:31 11.24304 -68.81157 34521 ft 455 kts 280°
2026-05-01 12:31 11.24911 -68.84320 34934 ft 453 kts 280°
2026-05-01 12:31 11.25516 -68.87476 35328 ft 452 kts 280°
2026-05-01 12:32 11.26118 -68.90620 35704 ft 450 kts 280°
2026-05-01 12:32 11.27315 -68.96874 36363 ft 449 kts 280°
2026-05-01 12:32 11.27913 -69.00004 36616 ft 450 kts 280°
2026-05-01 12:33 11.28513 -69.03140 36844 ft 451 kts 280°
2026-05-01 12:33 11.29112 -69.06275 37136 ft 450 kts 280°
2026-05-01 12:33 11.29703 -69.09376 37461 ft 449 kts 280°
2026-05-01 12:33 11.30299 -69.12500 37769 ft 448 kts 280°
2026-05-01 12:34 11.30894 -69.15619 37979 ft 447 kts 280°
2026-05-01 12:34 11.31487 -69.18734 37980 ft 447 kts 280°
2026-05-01 12:34 11.32672 -69.24958 37986 ft 447 kts 280°
2026-05-01 12:35 11.33855 -69.31180 37987 ft 447 kts 280°
2026-05-01 12:35 11.35038 -69.37408 37995 ft 447 kts 280°
2026-05-01 12:36 11.36218 -69.43629 37997 ft 447 kts 280°
2026-05-01 12:36 11.37398 -69.49852 37996 ft 447 kts 280°
2026-05-01 12:37 11.38578 -69.56080 37997 ft 447 kts 280°
2026-05-01 12:37 11.39757 -69.62306 37997 ft 447 kts 280°
2026-05-01 12:38 11.40957 -69.68498 37996 ft 447 kts 282°
2026-05-01 12:38 11.42556 -69.74633 37997 ft 447 kts 284°
2026-05-01 12:39 11.44273 -69.80746 37997 ft 447 kts 284°
2026-05-01 12:39 11.45990 -69.86854 37991 ft 447 kts 284°
2026-05-01 12:40 11.47707 -69.92970 37982 ft 447 kts 284°
2026-05-01 12:40 11.49409 -69.99036 37967 ft 446 kts 284°
2026-05-01 12:41 11.51127 -70.05164 37959 ft 447 kts 284°
2026-05-01 12:41 11.52824 -70.11226 37952 ft 447 kts 284°
2026-05-01 12:42 11.54532 -70.17328 37942 ft 447 kts 284°
2026-05-01 12:42 11.56239 -70.23433 37936 ft 447 kts 284°
2026-05-01 12:43 11.57944 -70.29533 37932 ft 447 kts 284°
2026-05-01 12:43 11.59651 -70.35641 37932 ft 447 kts 284°
2026-05-01 12:44 11.61345 -70.41742 37930 ft 447 kts 284°
2026-05-01 12:45 11.64396 -70.52940 37934 ft 447 kts 284°
2026-05-01 12:45 11.66337 -70.60055 37931 ft 447 kts 284°
2026-05-01 12:46 11.67735 -70.65180 37932 ft 447 kts 284°
2026-05-01 12:46 11.69404 -70.71305 37931 ft 447 kts 284°
2026-05-01 12:47 11.71063 -70.77393 37930 ft 447 kts 284°
2026-05-01 12:47 11.72730 -70.83521 37931 ft 447 kts 284°
2026-05-01 12:48 11.74394 -70.89642 37932 ft 447 kts 284°
2026-05-01 12:48 11.76058 -70.95767 37932 ft 447 kts 284°
2026-05-01 12:49 11.77719 -71.01884 37930 ft 446 kts 284°
2026-05-01 12:49 11.79368 -71.07961 37924 ft 446 kts 284°
2026-05-01 12:50 11.81030 -71.14094 37926 ft 446 kts 284°
2026-05-01 12:50 11.82687 -71.20207 37921 ft 446 kts 284°
2026-05-01 12:51 11.84341 -71.26321 37915 ft 446 kts 284°
2026-05-01 12:52 11.86893 -71.35473 37913 ft 447 kts 287°
2026-05-01 12:52 11.90524 -71.44271 37913 ft 449 kts 295°
2026-05-01 12:53 11.95511 -71.52406 37912 ft 452 kts 304°
2026-05-01 12:54 11.99282 -71.57546 37908 ft 452 kts 304°
2026-05-01 12:54 12.04928 -71.65208 37903 ft 451 kts 304°
2026-05-01 12:55 12.10589 -71.72904 37903 ft 451 kts 304°
2026-05-01 12:56 12.14360 -71.78034 37905 ft 451 kts 304°
2026-05-01 12:56 12.18127 -71.83162 37903 ft 451 kts 304°
2026-05-01 12:57 12.21893 -71.88292 37895 ft 451 kts 304°
2026-05-01 12:57 12.27546 -71.95997 37894 ft 451 kts 304°
2026-05-01 12:58 12.31302 -72.01119 37896 ft 451 kts 304°
2026-05-01 12:59 12.36929 -72.08799 37892 ft 451 kts 304°
2026-05-01 12:59 12.42572 -72.16507 37895 ft 450 kts 304°
2026-05-01 13:00 12.48213 -72.24218 37896 ft 451 kts 304°
2026-05-01 13:01 12.53851 -72.31932 37893 ft 450 kts 304°
2026-05-01 13:02 12.59480 -72.39639 37889 ft 450 kts 303°
2026-05-01 13:07 13.00573 -72.96106 37882 ft 449 kts 303°
2026-05-01 13:08 13.04304 -73.01251 37865 ft 449 kts 303°
2026-05-01 13:08 13.08040 -73.06404 37864 ft 449 kts 303°
2026-05-01 13:09 13.11765 -73.11546 37864 ft 449 kts 303°
2026-05-01 13:09 13.15493 -73.16694 37867 ft 449 kts 303°
2026-05-01 13:10 13.19221 -73.21845 37864 ft 449 kts 303°
2026-05-01 13:10 13.22947 -73.26998 37866 ft 449 kts 303°
2026-05-01 13:11 13.26667 -73.32144 37866 ft 449 kts 303°
2026-05-01 13:11 13.30365 -73.37262 37865 ft 449 kts 303°
2026-05-01 13:12 13.34086 -73.42415 37881 ft 448 kts 303°
2026-05-01 13:12 13.37804 -73.47566 37866 ft 448 kts 303°
2026-05-01 13:13 13.41514 -73.52710 37879 ft 447 kts 303°
2026-05-01 13:13 13.45222 -73.57852 37866 ft 447 kts 303°
2026-05-01 13:14 13.48933 -73.63002 37880 ft 448 kts 303°
2026-05-01 13:14 13.52769 -73.68057 37882 ft 450 kts 307°
2026-05-01 13:15 13.57082 -73.72755 37883 ft 453 kts 312°
2026-05-01 13:15 13.61864 -73.77016 37867 ft 456 kts 317°
2026-05-01 13:16 13.67051 -73.80811 37877 ft 458 kts 321°
2026-05-01 13:16 13.72353 -73.84459 37869 ft 458 kts 321°
2026-05-01 13:17 13.82913 -73.91731 37903 ft 458 kts 321°
2026-05-01 13:18 13.90859 -73.97213 37905 ft 458 kts 321°
2026-05-01 13:18 13.96147 -74.00864 37902 ft 458 kts 321°
2026-05-01 13:19 14.01435 -74.04517 37905 ft 458 kts 321°
2026-05-01 13:20 14.09374 -74.10003 37902 ft 458 kts 321°
2026-05-01 13:20 14.14678 -74.13671 37905 ft 458 kts 321°
2026-05-01 13:21 14.22624 -74.19180 37913 ft 458 kts 321°
2026-05-01 13:21 14.27885 -74.22829 37913 ft 458 kts 321°
2026-05-01 13:22 14.33181 -74.26502 37914 ft 458 kts 321°
2026-05-01 13:22 14.38468 -74.30171 37914 ft 458 kts 321°
2026-05-01 13:23 14.43762 -74.33846 37913 ft 458 kts 321°
2026-05-01 13:23 14.49048 -74.37519 37921 ft 458 kts 321°
2026-05-01 13:24 14.54343 -74.41197 37922 ft 458 kts 321°
2026-05-01 13:25 14.62276 -74.46715 37922 ft 458 kts 321°
2026-05-01 13:25 14.67565 -74.50395 37923 ft 458 kts 321°
2026-05-01 13:26 14.72824 -74.54058 37923 ft 458 kts 321°
2026-05-01 13:26 14.78115 -74.57744 37923 ft 458 kts 321°
2026-05-01 13:27 14.83404 -74.61432 37931 ft 458 kts 321°
2026-05-01 13:27 14.91331 -74.66959 37931 ft 458 kts 320°
2026-05-01 13:28 14.99278 -74.72508 37924 ft 458 kts 320°
2026-05-01 13:29 15.09866 -74.79804 37921 ft 459 kts 321°
2026-05-01 13:31 15.25840 -74.90789 37931 ft 459 kts 321°
2026-05-01 13:32 15.39158 -74.99966 37927 ft 459 kts 321°
2026-05-01 13:33 15.52419 -75.09116 37943 ft 459 kts 321°
2026-05-01 13:34 15.62171 -75.15855 37939 ft 460 kts 320°
2026-05-01 13:35 15.70158 -75.21380 37942 ft 460 kts 320°
2026-05-01 13:36 15.78143 -75.26909 37943 ft 460 kts 320°
2026-05-01 13:36 15.86133 -75.32446 37951 ft 460 kts 320°
2026-05-01 13:37 15.91461 -75.36142 37944 ft 460 kts 320°
2026-05-01 13:37 15.96786 -75.39837 37948 ft 460 kts 320°
2026-05-01 13:38 16.04761 -75.45376 37946 ft 460 kts 320°
2026-05-01 13:39 16.10083 -75.49075 37960 ft 460 kts 320°
2026-05-01 13:39 16.15366 -75.52748 37965 ft 460 kts 320°
2026-05-01 13:40 16.20723 -75.56474 37977 ft 460 kts 320°
2026-05-01 13:40 16.25993 -75.60164 37963 ft 458 kts 319°
2026-05-01 13:41 16.30752 -75.64481 37972 ft 450 kts 308°
2026-05-01 13:41 16.34579 -75.69562 37969 ft 443 kts 298°
2026-05-01 13:42 16.37406 -75.75212 37972 ft 437 kts 288°
2026-05-01 13:42 16.39444 -75.81167 37972 ft 436 kts 285°
2026-05-01 13:43 16.41401 -75.87168 37963 ft 436 kts 285°
2026-05-01 13:43 16.43354 -75.93163 37964 ft 436 kts 285°
2026-05-01 13:44 16.45294 -75.99118 37960 ft 436 kts 285°
2026-05-01 13:44 16.47246 -76.05116 37977 ft 438 kts 285°
2026-05-01 13:45 16.49207 -76.11145 37964 ft 438 kts 285°
2026-05-01 13:45 16.51166 -76.17170 37967 ft 438 kts 285°
2026-05-01 13:46 16.53121 -76.23190 37969 ft 438 kts 285°
2026-05-01 13:46 16.55073 -76.29210 37960 ft 438 kts 285°
2026-05-01 13:47 16.57014 -76.35202 37971 ft 438 kts 285°
2026-05-01 13:47 16.58962 -76.41219 37977 ft 438 kts 285°
2026-05-01 13:48 16.60912 -76.47246 37977 ft 438 kts 285°
2026-05-01 13:48 16.62862 -76.53279 37977 ft 438 kts 285°
2026-05-01 13:49 16.64779 -76.59329 37971 ft 437 kts 283°
2026-05-01 13:49 16.66360 -76.65471 37970 ft 437 kts 282°
2026-05-01 13:50 16.67891 -76.71632 37967 ft 438 kts 282°
2026-05-01 13:50 16.69423 -76.77793 37973 ft 438 kts 282°
2026-05-01 13:51 16.70944 -76.83914 37977 ft 438 kts 282°
2026-05-01 13:51 16.72475 -76.90085 37978 ft 438 kts 282°
2026-05-01 13:52 16.74004 -76.96252 37967 ft 438 kts 282°
2026-05-01 13:52 16.75529 -77.02413 37967 ft 438 kts 282°
2026-05-01 13:53 16.77054 -77.08589 37978 ft 439 kts 282°
2026-05-01 13:53 16.79331 -77.17819 37961 ft 439 kts 282°
2026-05-01 13:54 16.80853 -77.23997 37977 ft 439 kts 282°
2026-05-01 13:54 16.82374 -77.30177 37977 ft 439 kts 282°
2026-05-01 13:55 16.83894 -77.36368 37967 ft 439 kts 282°
2026-05-01 13:55 16.85409 -77.42543 37972 ft 439 kts 282°
2026-05-01 13:56 16.86924 -77.48727 37971 ft 439 kts 282°
2026-05-01 13:56 16.88438 -77.54915 37971 ft 439 kts 282°
2026-05-01 13:57 16.89950 -77.61107 37968 ft 440 kts 282°
2026-05-01 13:57 16.91452 -77.67267 37975 ft 441 kts 282°
2026-05-01 13:58 16.92968 -77.73487 37978 ft 441 kts 282°
2026-05-01 13:58 16.94479 -77.79698 37965 ft 441 kts 282°
2026-05-01 13:59 16.95990 -77.85919 37959 ft 441 kts 282°
2026-05-01 13:59 16.97498 -77.92134 37978 ft 441 kts 282°
2026-05-01 14:00 16.99004 -77.98353 37971 ft 441 kts 282°
2026-05-01 14:00 17.00502 -78.04556 37962 ft 442 kts 282°
2026-05-01 14:01 17.02014 -78.10818 37973 ft 444 kts 282°
2026-05-01 14:01 17.03525 -78.17078 37979 ft 444 kts 282°
2026-05-01 14:02 17.05025 -78.23302 37979 ft 444 kts 282°
2026-05-01 14:02 17.06533 -78.29570 37978 ft 444 kts 282°
2026-05-01 14:03 17.08040 -78.35842 37978 ft 444 kts 282°
2026-05-01 14:03 17.09547 -78.42126 37978 ft 445 kts 282°
2026-05-01 14:04 17.11048 -78.48400 37977 ft 445 kts 282°
2026-05-01 14:04 17.12299 -78.53627 37979 ft 445 kts 282°
2026-05-01 14:05 17.14057 -78.60988 37978 ft 445 kts 282°
2026-05-01 14:05 17.15549 -78.67248 37978 ft 446 kts 282°
2026-05-01 14:06 17.17050 -78.73551 37978 ft 446 kts 282°
2026-05-01 14:06 17.18551 -78.79865 37978 ft 447 kts 282°
2026-05-01 14:07 17.20052 -78.86188 37977 ft 447 kts 282°
2026-05-01 14:08 17.22301 -78.95680 37978 ft 448 kts 282°
2026-05-01 14:08 17.23803 -79.02030 37978 ft 449 kts 282°
2026-05-01 14:09 17.25303 -79.08383 37977 ft 449 kts 282°
2026-05-01 14:09 17.26803 -79.14747 37978 ft 450 kts 283°
2026-05-01 14:10 17.28292 -79.21070 37979 ft 450 kts 283°
2026-05-01 14:10 17.29791 -79.27443 37979 ft 451 kts 283°
2026-05-01 14:11 17.31289 -79.33825 37978 ft 451 kts 283°
2026-05-01 14:11 17.33539 -79.43429 37978 ft 452 kts 283°
2026-05-01 14:12 17.35037 -79.49835 37977 ft 453 kts 283°
2026-05-01 14:12 17.36537 -79.56260 37978 ft 453 kts 283°
2026-05-01 14:13 17.37782 -79.61598 37979 ft 453 kts 283°
2026-05-01 14:13 17.39532 -79.69115 37986 ft 454 kts 283°
2026-05-01 14:14 17.41029 -79.75552 37987 ft 455 kts 283°
2026-05-01 14:14 17.42525 -79.82000 37987 ft 455 kts 283°
2026-05-01 14:15 17.44010 -79.88408 37988 ft 455 kts 283°
2026-05-01 14:15 17.45503 -79.94857 37992 ft 455 kts 283°
2026-05-01 14:16 17.46994 -80.01313 37996 ft 456 kts 283°
2026-05-01 14:16 17.48488 -80.07800 37996 ft 458 kts 284°
2026-05-01 14:17 17.49985 -80.14295 37997 ft 458 kts 283°
2026-05-01 14:17 17.51480 -80.20790 37997 ft 458 kts 283°
2026-05-01 14:18 17.52975 -80.27300 37996 ft 458 kts 283°
2026-05-01 14:18 17.54213 -80.32698 37996 ft 458 kts 283°
2026-05-01 14:19 17.55953 -80.40301 37997 ft 458 kts 283°
2026-05-01 14:19 17.57431 -80.46763 37996 ft 458 kts 283°
2026-05-01 14:20 17.59658 -80.56521 37994 ft 458 kts 283°
2026-05-01 14:21 17.61140 -80.63029 37993 ft 458 kts 283°
2026-05-01 14:21 17.62403 -80.69583 37994 ft 458 kts 279°
2026-05-01 14:22 17.63115 -80.79554 37994 ft 459 kts 270°
2026-05-01 14:22 17.62860 -80.86260 37994 ft 460 kts 268°
2026-05-01 14:23 17.62498 -80.92960 37996 ft 460 kts 268°
2026-05-01 14:23 17.62134 -80.99667 37997 ft 460 kts 268°
2026-05-01 14:24 17.61830 -81.05250 37997 ft 460 kts 268°
2026-05-01 14:24 17.61463 -81.11964 37997 ft 461 kts 268°
2026-05-01 14:25 17.61094 -81.18689 37997 ft 461 kts 268°
2026-05-01 14:25 17.60723 -81.25422 37997 ft 462 kts 268°
2026-05-01 14:26 17.60160 -81.35536 37996 ft 462 kts 268°
2026-05-01 14:27 17.59782 -81.42287 37982 ft 463 kts 268°
2026-05-01 14:27 17.59402 -81.49033 37979 ft 463 kts 268°
2026-05-01 14:28 17.58829 -81.59123 37979 ft 464 kts 268°
2026-05-01 14:28 17.58443 -81.65879 37977 ft 464 kts 268°
2026-05-01 14:29 17.58054 -81.72644 37977 ft 464 kts 268°
2026-05-01 14:30 17.57268 -81.86202 37978 ft 465 kts 268°
2026-05-01 14:31 17.56676 -81.96339 37979 ft 465 kts 268°
2026-05-01 14:31 17.56274 -82.03158 37978 ft 466 kts 268°
2026-05-01 14:32 17.55821 -82.09903 37979 ft 466 kts 268°
2026-05-01 14:32 17.55298 -82.16706 37979 ft 466 kts 267°
2026-05-01 14:33 17.54779 -82.23480 37966 ft 466 kts 267°
2026-05-01 14:33 17.54264 -82.30257 37973 ft 466 kts 267°
2026-05-01 14:34 17.53749 -82.37025 37961 ft 465 kts 267°
2026-05-01 14:34 17.53233 -82.43799 37963 ft 465 kts 267°
2026-05-01 14:35 17.52713 -82.50570 37976 ft 465 kts 267°
2026-05-01 14:35 17.52192 -82.57335 37967 ft 465 kts 267°
2026-05-01 14:36 17.51669 -82.64098 37958 ft 465 kts 267°
2026-05-01 14:36 17.51145 -82.70848 37954 ft 464 kts 267°
2026-05-01 14:37 17.50622 -82.77566 37955 ft 464 kts 267°
2026-05-01 14:37 17.50094 -82.84313 37957 ft 464 kts 267°
2026-05-01 14:38 17.49561 -82.91074 37965 ft 464 kts 266°
2026-05-01 14:38 17.49029 -82.97817 37963 ft 464 kts 266°
2026-05-01 14:39 17.48493 -83.04567 37963 ft 464 kts 266°
2026-05-01 14:39 17.47955 -83.11318 37976 ft 464 kts 266°
2026-05-01 14:40 17.47415 -83.18066 37965 ft 464 kts 266°
2026-05-01 14:40 17.46873 -83.24810 37963 ft 463 kts 266°
2026-05-01 14:41 17.46329 -83.31549 37976 ft 463 kts 266°
2026-05-01 14:41 17.45786 -83.38239 37959 ft 463 kts 266°
2026-05-01 14:42 17.45238 -83.44974 37957 ft 463 kts 266°
2026-05-01 14:42 17.44688 -83.51703 37957 ft 463 kts 266°
2026-05-01 14:43 17.44137 -83.58432 37949 ft 463 kts 266°
2026-05-01 14:43 17.43582 -83.65161 37947 ft 463 kts 266°
2026-05-01 14:44 17.43026 -83.71896 37956 ft 463 kts 266°
2026-05-01 14:44 17.42189 -83.81978 37949 ft 463 kts 266°
2026-05-01 14:45 17.41360 -83.92069 37954 ft 462 kts 267°
2026-05-01 14:46 17.41242 -83.98764 37946 ft 462 kts 273°
2026-05-01 14:46 17.41631 -84.08846 37947 ft 462 kts 273°
2026-05-01 14:47 17.41896 -84.15587 37955 ft 462 kts 273°
2026-05-01 14:48 17.42287 -84.25682 37938 ft 462 kts 273°
2026-05-01 14:48 17.42673 -84.35795 37945 ft 462 kts 273°
2026-05-01 14:49 17.43177 -84.49210 37945 ft 462 kts 273°
2026-05-01 14:50 17.43674 -84.62701 37945 ft 463 kts 273°
2026-05-01 14:51 17.44042 -84.72828 37945 ft 463 kts 272°
2026-05-01 14:52 17.44404 -84.82970 37945 ft 463 kts 272°
2026-05-01 14:53 17.44763 -84.93119 37943 ft 464 kts 272°
2026-05-01 14:53 17.44998 -84.99877 37937 ft 464 kts 272°
2026-05-01 14:54 17.45229 -85.06589 37945 ft 464 kts 272°
2026-05-01 14:54 17.45460 -85.13363 37945 ft 464 kts 272°
2026-05-01 14:55 17.45690 -85.20130 37945 ft 464 kts 272°
2026-05-01 14:55 17.45916 -85.26882 37938 ft 464 kts 272°
2026-05-01 14:56 17.46140 -85.33645 37939 ft 464 kts 272°
2026-05-01 14:56 17.46362 -85.40408 37935 ft 464 kts 272°
2026-05-01 14:57 17.46580 -85.47127 37922 ft 463 kts 272°
2026-05-01 14:57 17.46905 -85.57264 37924 ft 463 kts 272°
2026-05-01 14:58 17.47118 -85.64024 37922 ft 463 kts 272°
2026-05-01 14:58 17.47330 -85.70781 37922 ft 463 kts 272°
2026-05-01 14:59 17.47539 -85.77537 37922 ft 463 kts 272°
2026-05-01 14:59 17.47746 -85.84305 37922 ft 463 kts 272°
2026-05-01 15:00 17.48052 -85.94442 37923 ft 463 kts 272°
2026-05-01 15:01 17.48253 -86.01194 37926 ft 463 kts 272°
2026-05-01 15:01 17.48452 -86.07948 37928 ft 463 kts 272°
2026-05-01 15:02 17.48648 -86.14710 37933 ft 463 kts 272°
2026-05-01 15:02 17.48835 -86.21435 37932 ft 464 kts 272°
2026-05-01 15:03 17.49031 -86.28221 37929 ft 465 kts 272°
2026-05-01 15:03 17.49223 -86.35006 37928 ft 465 kts 272°
2026-05-01 15:04 17.49412 -86.41792 37924 ft 465 kts 272°
2026-05-01 15:04 17.49597 -86.48533 37924 ft 465 kts 272°
2026-05-01 15:05 17.49780 -86.55320 37923 ft 465 kts 272°
2026-05-01 15:05 17.49962 -86.62112 37922 ft 465 kts 272°
2026-05-01 15:06 17.50142 -86.68915 37923 ft 466 kts 272°
2026-05-01 15:06 17.50319 -86.75721 37922 ft 466 kts 272°
2026-05-01 15:07 17.50494 -86.82530 37922 ft 467 kts 272°
2026-05-01 15:07 17.50666 -86.89340 37918 ft 467 kts 272°
2026-05-01 15:08 17.50839 -86.96250 37915 ft 467 kts 272°
2026-05-01 15:08 17.51007 -87.03027 37914 ft 467 kts 272°
2026-05-01 15:09 17.51172 -87.09851 37913 ft 468 kts 272°
2026-05-01 15:09 17.51336 -87.16682 37913 ft 468 kts 272°
2026-05-01 15:10 17.51498 -87.23508 37913 ft 468 kts 272°
2026-05-01 15:10 17.51737 -87.33765 37913 ft 469 kts 272°
2026-05-01 15:11 17.51972 -87.44040 37915 ft 469 kts 272°
2026-05-01 15:12 17.52125 -87.50853 37920 ft 470 kts 272°
2026-05-01 15:12 17.52351 -87.61143 37922 ft 470 kts 272°
2026-05-01 15:14 17.52734 -87.77193 37920 ft 471 kts 272°
2026-05-01 15:14 17.52977 -87.87454 37913 ft 471 kts 273°
2026-05-01 15:15 17.53286 -88.01181 37914 ft 471 kts 273°
2026-05-01 15:16 17.53594 -88.14934 37913 ft 471 kts 272°
2026-05-01 15:18 17.54073 -88.32139 37913 ft 471 kts 276°
2026-05-01 15:19 17.55559 -88.45736 37914 ft 471 kts 278°
2026-05-01 15:19 17.56718 -88.55968 37912 ft 470 kts 278°
2026-05-01 15:20 17.57869 -88.66201 37912 ft 471 kts 278°
2026-05-01 15:21 17.58632 -88.73029 37913 ft 471 kts 277°
2026-05-01 15:21 17.59394 -88.79863 37913 ft 471 kts 277°
2026-05-01 15:22 17.60532 -88.90109 37913 ft 471 kts 277°
2026-05-01 15:22 17.61288 -88.96941 37913 ft 471 kts 277°
2026-05-01 15:23 17.62035 -89.03721 37914 ft 471 kts 277°
2026-05-01 15:23 17.62786 -89.10556 37914 ft 471 kts 277°
2026-05-01 15:24 17.63537 -89.17397 37914 ft 471 kts 277°
2026-05-01 15:24 17.64284 -89.24237 37912 ft 471 kts 277°
2026-05-01 15:25 17.65028 -89.31087 37914 ft 471 kts 277°
2026-05-01 15:25 17.65770 -89.37930 37914 ft 471 kts 277°
2026-05-01 15:26 17.66509 -89.44759 37913 ft 471 kts 277°
2026-05-01 15:26 17.67246 -89.51589 37914 ft 471 kts 277°
2026-05-01 15:27 17.67976 -89.58387 37912 ft 471 kts 277°
2026-05-01 15:28 17.69073 -89.68640 37914 ft 471 kts 277°
2026-05-01 15:28 17.69802 -89.75480 37914 ft 471 kts 277°
2026-05-01 15:29 17.70890 -89.85732 37914 ft 470 kts 277°
2026-05-01 15:30 17.72332 -89.99399 37904 ft 470 kts 277°
2026-05-01 15:31 17.74477 -90.19896 37898 ft 471 kts 277°
2026-05-01 15:32 17.75891 -90.33530 37896 ft 471 kts 277°
2026-05-01 15:34 17.78004 -90.54065 37881 ft 471 kts 277°